Location: Raleigh
(35.7720°N, 78.6390°W)
Time: 12:57:02
(UTC-04:00)

JAS-2 - Visible Passes

Search period start: 24 July 2014 00:00
Search period end: 03 August 2014 00:00
Orbit: 800 x 1322 km, 98.5° (Epoch: 23 July)

Date Brightness Start Highest point End Pass type
(mag) Time Alt. Az. Time Alt. Az. Time Alt. Az.
25 Jul 13.0 20:54:58 10° WSW 20:57:11 11° W 20:59:24 10° WNW visible
27 Jul 12.9 20:49:27 10° WSW 20:52:20 12° W 20:55:12 10° WNW visible
29 Jul 12.9 20:44:06 10° WSW 20:47:29 13° W 20:50:50 10° WNW visible
31 Jul 12.8 20:38:52 10° WSW 20:42:39 14° W 20:46:22 10° WNW visible
